Theta_e
292 286 286 287 287 285 285 284 285 285 286 285 285 283 283 282 284 285 286 288 287 287 286 287 287 287 287 286 288 288 286 284 283 283 283 283 283 283 283 283 283 283 283 285 286 284 284 285 284 284 283 283 282 283 283 283 284 284 285 286 286 286 287 287 287 287 286 285 285 285 284 284 284 284 285 285 284 284 285 285 285 286 286 285 285 286
288 285 286 287 289 286 284 284 285 287 285 285 284 282 283 281 282 286 286 287 287 286 283 282 283 285 287 286 287 287 284 284 284 284 283 283 283 283 283 283 283 283 284 285 284 284 283 283 284 283 283 285 282 283 283 283 283 284 285 285 285 286 286 286 286 286 286 285 285 284 283 283 283 283 283 282 283 284 285 285 285 284 284 284 284 285
285 287 290 289 288 284 287 286 286 285 286 284 283 281 281 283 283 286 286 286 287 286 284 284 284 285 285 286 286 286 285 287 286 286 285 284 283 283 283 283 283 282 282 282 283 283 282 283 283 282 282 282 282 282 282 282 283 284 284 284 284 285 285 285 286 286 285 285 285 284 283 283 283 283 283 283 284 284 283 283 283 284 284 284 283 284
288 283 287 288 285 288 286 286 286 286 285 283 282 282 282 283 282 280 283 284 285 284 283 283 284 285 287 287 287 287 286 286 287 286 284 284 283 283 283 283 283 282 281 281 282 282 281 281 280 281 281 282 282 282 281 282 283 284 284 283 284 284 285 285 285 287 285 285 285 284 284 283 283 282 284 283 283 283 282 282 283 283 283 283 283 283
289 291 289 285 287 287 286 286 285 285 283 282 283 282 282 282 283 282 283 284 284 284 283 284 284 283 285 286 287 286 286 285 284 283 282 283 283 284 283 283 282 282 280 281 281 281 281 282 282 281 281 281 282 282 281 282 283 285 283 284 284 284 284 284 285 284 284 284 283 283 283 283 282 282 281 281 280 281 281 281 281 281 282 282 283 283
286 286 287 286 287 287 286 285 284 284 282 279 282 285 285 284 284 283 282 283 280 279 280 281 278 276 279 284 286 282 281 283 282 282 282 283 282 282 282 282 282 283 280 281 281 281 281 280 280 280 280 281 281 281 282 282 283 283 283 284 284 284 284 284 284 283 284 283 282 281 280 279 279 278 278 278 278 278 279 279 280 281 281 282 282 283
287 287 287 287 287 286 286 284 283 285 281 281 284 283 285 284 283 282 281 282 277 275 281 281 276 276 278 281 283 281 280 282 280 281 282 282 282 282 282 282 281 281 280 281 281 280 280 280 280 280 279 280 281 281 282 282 282 283 283 284 284 283 283 284 283 283 283 282 281 280 279 279 278 278 278 279 279 279 279 280 279 280 280 281 281 281
285 287 284 284 285 284 284 282 282 286 282 281 282 281 282 283 282 281 282 281 279 279 281 281 279 275 276 281 283 283 281 281 280 280 281 282 282 282 281 281 280 281 280 281 280 280 280 279 279 280 280 280 281 281 282 282 283 282 283 283 283 283 283 283 282 282 282 281 281 280 279 280 279 278 278 279 279 280 280 279 278 279 279 280 280 281
285 283 285 285 284 283 283 283 284 286 284 281 283 282 283 282 281 281 281 279 278 277 276 278 281 276 275 277 280 280 279 279 280 280 280 281 282 281 281 280 280 280 280 280 280 279 280 280 279 280 280 281 281 281 281 282 282 283 283 283 282 282 282 282 282 282 281 281 281 280 279 278 279 279 279 279 279 278 278 277 278 278 278 279 279 280
286 287 284 286 284 284 284 282 283 286 284 284 282 283 282 283 282 282 279 279 276 274 274 279 279 273 278 278 278 278 278 279 281 281 281 281 282 281 280 280 280 280 280 279 280 279 279 279 280 280 280 280 281 281 282 282 282 282 282 282 282 281 281 281 281 280 280 280 280 279 279 278 278 278 278 278 277 277 277 276 276 277 277 278 278 278
286 290 289 287 286 285 282 283 283 285 285 284 281 282 279 279 279 278 277 276 271 268 277 280 278 278 275 277 279 277 279 282 283 281 281 281 281 280 280 280 280 280 280 279 280 279 279 279 279 280 280 280 280 280 281 281 282 282 282 281 281 281 281 281 280 280 279 279 279 279 278 278 277 277 277 276 276 276 276 275 275 276 276 277 277 277
284 286 286 283 287 285 284 284 283 283 283 283 281 279 280 280 275 272 269 273 269 270 275 277 279 279 271 276 279 283 282 282 284 282 281 281 281 280 280 279 279 279 279 280 279 279 279 279 279 280 280 279 280 280 280 281 281 281 281 281 280 281 281 280 280 280 280 279 279 278 278 278 277 277 276 275 275 275 275 275 275 276 275 275 276 276
282 283 282 285 288 286 283 283 282 282 281 281 279 277 275 271 271 269 269 269 268 273 275 273 276 275 276 282 280 282 284 282 282 284 283 282 281 279 279 279 279 279 279 279 279 279 279 278 279 279 279 279 279 280 280 281 280 280 280 280 280 280 280 280 279 279 279 279 278 278 278 277 278 277 276 275 275 275 275 275 275 274 274 274 274 274
283 280 283 284 286 287 285 282 279 282 280 279 280 275 274 269 267 270 271 267 268 275 275 275 277 274 280 281 285 286 286 285 283 283 284 283 281 280 280 279 279 279 279 279 279 278 278 278 278 279 279 279 279 280 281 280 280 280 280 279 280 280 280 280 280 279 279 279 278 278 277 277 277 276 276 276 275 275 275 275 275 274 274 274 274 274
275 276 281 284 284 285 287 286 283 278 280 280 279 281 278 273 272 273 273 274 278 278 274 276 272 270 272 278 278 278 277 276 282 282 280 282 281 280 279 279 279 278 278 278 278 278 278 279 278 279 279 279 279 280 280 279 279 279 279 280 279 279 280 279 279 279 278 278 278 277 277 277 277 276 276 276 276 276 275 275 274 274 274 274 274 274
280 280 281 284 283 286 285 284 282 281 280 280 278 278 275 277 279 277 274 271 276 274 275 271 274 276 280 279 279 276 277 277 278 277 279 279 279 279 278 278 278 278 279 278 278 278 278 278 278 278 279 279 280 279 279 279 279 279 279 279 279 279 279 279 279 278 278 278 277 277 276 276 276 277 276 276 276 275 275 274 274 274 274 274 274 274
279 277 280 283 283 284 282 282 284 284 278 278 279 276 279 280 281 276 273 274 273 275 274 275 276 280 280 279 275 277 276 276 276 277 278 278 278 278 278 278 278 278 278 278 278 277 278 277 278 278 279 279 279 278 278 278 278 279 279 279 278 278 278 278 278 278 277 277 276 276 275 275 275 275 274 274 274 274 274 274 274 274 274 274 274 273
280 281 281 281 284 283 280 282 282 280 282 280 274 279 279 280 280 275 271 273 273 271 275 272 276 279 277 279 276 276 275 275 275 275 277 277 277 277 278 277 278 278 278 278 278 277 278 278 279 279 279 278 278 278 278 278 278 279 278 277 277 278 277 278 277 277 277 276 275 275 275 275 274 274 274 274 274 274 274 274 274 273 273 273 273 274
282 279 280 279 280 282 282 283 283 283 282 280 279 282 280 275 273 274 270 271 270 272 273 277 278 279 281 281 273 274 274 275 275 275 275 276 276 277 277 277 277 277 277 277 277 277 277 278 278 278 277 277 277 278 277 278 278 278 277 277 277 277 277 277 277 276 276 275 275 275 274 274 274 274 274 274 274 274 273 273 273 273 273 273 273 273
284 281 279 279 279 280 281 281 277 279 282 281 282 279 280 278 278 274 277 276 278 274 275 276 279 278 281 281 280 278 277 277 276 275 275 277 277 277 277 277 277 277 277 277 277 277 278 278 277 276 276 276 277 276 277 277 277 277 277 276 277 277 276 276 275 275 274 274 274 274 274 273 273 273 273 273 273 273 273 273 273 272 272 272 273 273
282 280 275 278 278 280 277 279 280 280 277 277 277 275 275 276 277 277 276 275 277 274 275 274 273 280 280 281 280 280 279 278 277 276 277 278 277 277 277 278 277 278 277 278 277 277 277 276 276 276 275 276 275 276 277 276 276 276 276 276 276 275 275 275 275 274 274 274 273 273 272 272 272 272 273 272 273 272 272 272 273 273 272 273 272 272
279 278 279 276 276 277 280 282 284 283 284 279 280 278 279 276 273 272 274 278 276 277 273 274 274 282 282 280 283 282 281 279 278 278 278 277 277 277 277 278 278 278 277 277 276 276 277 276 276 275 275 275 275 275 275 276 275 275 275 275 275 275 274 274 274 273 273 273 273 272 272 271 271 272 272 272 272 272 272 272 272 272 272 272 272 272
282 277 277 277 279 280 281 281 280 282 282 281 281 280 281 280 278 275 273 276 273 276 278 276 274 278 281 282 281 282 280 279 279 279 278 277 277 277 277 277 277 277 277 277 276 276 276 275 275 276 276 275 275 275 275 275 275 275 275 275 274 274 273 273 273 273 272 272 271 271 271 271 271 271 271 271 271 271 271 271 272 272 272 271 271 272
289 278 273 280 280 278 277 277 278 279 281 280 279 278 279 278 281 280 281 279 276 277 272 274 272 277 280 279 278 278 279 279 279 279 278 277 277 277 277 277 277 276 276 277 276 276 276 275 275 275 275 275 275 274 275 274 274 274 274 274 274 273 273 272 272 272 271 271 270 270 270 270 270 270 270 270 271 270 271 271 271 272 271 271 271 271
278 279 278 273 272 278 277 276 277 277 277 275 276 279 281 283 281 279 277 278 274 279 276 274 271 278 282 277 276 276 277 277 278 277 278 277 277 277 277 277 277 277 276 275 276 275 275 274 274 275 275 274 274 274 274 274 274 274 273 273 272 272 272 272 271 271 270 270 269 269 269 269 269 269 270 270 270 270 271 271 271 271 271 271 270 271
283 279 279 272 273 272 273 271 270 271 276 276 276 276 279 279 280 276 275 277 273 278 278 275 275 282 278 277 276 276 276 276 277 277 277 278 277 277 277 277 277 276 276 276 275 275 275 275 275 274 274 274 274 273 273 273 273 272 272 272 272 271 271 271 270 270 269 269 268 268 268 268 268 269 269 270 270 270 271 270 271 271 271 271 270 270
276 278 281 283 280 279 281 283 280 278 274 274 275 277 277 278 280 280 280 277 275 278 277 279 280 280 282 279 276 276 276 277 277 276 276 276 277 277 277 277 277 277 276 275 275 275 274 274 274 274 273 273 273 272 272 272 272 271 271 271 271 270 270 270 269 269 268 267 267 267 267 267 268 268 269 269 270 270 270 270 270 270 269 269 269 269
274 278 281 281 284 285 287 286 284 282 282 283 281 280 277 277 277 277 276 275 280 274 273 280 282 280 281 284 281 277 277 277 277 276 276 276 277 277 277 277 279 276 275 275 275 275 275 274 274 273 273 272 272 271 272 271 271 270 270 269 269 269 269 268 268 267 267 266 266 266 266 267 268 268 269 269 269 270 270 269 269 268 268 268 267 267
280 280 284 281 281 284 285 286 285 282 282 282 283 283 279 276 276 275 277 280 281 276 276 282 283 280 282 284 284 282 280 278 278 277 277 278 277 276 276 276 276 275 275 275 275 275 274 273 273 273 272 272 271 271 270 270 270 269 269 268 268 268 267 267 266 265 265 265 265 266 266 267 268 268 268 269 269 269 268 267 267 267 267 266 266 267
279 280 283 282 282 282 283 283 283 282 283 282 282 282 282 279 277 278 279 280 280 280 282 282 282 281 284 285 286 284 282 280 279 278 277 276 276 276 276 276 276 275 275 275 275 274 274 273 272 272 272 270 270 269 269 269 269 268 268 267 267 266 266 266 265 264 264 264 265 266 266 267 267 267 268 268 267 267 266 265 265 265 265 265 265 265
283 281 285 281 280 281 283 283 282 282 281 280 282 282 282 282 282 281 280 280 281 280 280 280 280 279 284 286 285 284 280 278 277 276 276 276 276 276 276 275 275 275 275 275 274 273 273 272 272 271 270 269 268 268 268 268 267 267 267 266 266 265 265 265 264 264 264 264 265 265 266 266 266 266 266 266 265 265 264 264 264 264 264 264 264 265
283 279 278 278 278 280 283 282 281 280 279 279 279 280 280 280 279 281 280 282 281 279 280 279 277 278 283 285 281 282 279 278 277 276 276 276 276 276 276 276 275 275 275 274 273 273 272 272 271 270 269 268 268 268 267 267 267 266 265 265 265 265 264 264 264 263 264 264 265 265 265 265 265 265 264 264 263 263 263 263 263 263 263 263 263 264
281 279 279 278 277 278 280 277 276 275 276 276 278 280 281 281 282 283 283 283 283 283 279 276 277 283 284 282 278 277 278 278 278 277 276 276 276 277 276 276 276 275 274 274 273 273 272 271 271 269 268 267 267 267 267 266 265 265 265 264 264 264 263 263 263 263 263 264 264 265 265 264 263 263 262 262 262 262 262 261 262 262 262 262 263 264
281 281 280 282 276 279 274 275 275 274 272 276 283 284 283 280 281 279 280 281 283 282 281 283 284 285 283 282 280 279 276 277 278 279 279 277 276 276 276 276 275 275 274 273 273 272 272 271 270 269 268 267 267 267 267 266 265 265 264 264 263 263 262 262 262 263 263 263 264 264 263 263 262 261 261 262 261 261 261 261 261 261 262 263 263 264
280 281 280 282 277 276 274 275 273 271 275 283 276 280 282 283 282 281 281 282 283 283 282 282 282 283 283 284 282 279 278 278 278 277 277 278 278 277 276 275 274 274 273 273 272 271 271 270 269 268 267 267 267 266 265 264 264 263 263 263 262 262 262 262 262 262 263 263 263 262 262 261 261 260 260 260 260 260 260 260 261 261 262 263 263 263
280 279 280 278 277 274 270 272 269 273 283 284 282 279 281 280 280 278 278 280 281 282 282 280 282 283 284 283 282 278 278 276 275 276 277 277 277 277 275 275 274 274 273 273 272 271 269 268 268 267 266 267 265 265 264 263 263 262 261 262 261 261 261 261 261 261 262 261 261 261 261 260 259 259 259 260 260 259 260 260 261 261 262 263 263 264
284 282 281 276 280 274 275 273 276 282 280 283 284 278 278 279 277 278 276 282 284 282 281 281 282 282 282 282 277 276 276 276 275 275 276 276 276 277 276 275 275 274 273 272 271 269 269 268 266 266 266 265 264 264 263 263 262 261 261 260 260 260 260 260 260 261 261 260 260 260 260 259 259 259 259 259 259 259 260 260 261 261 262 262 263 264
285 282 282 279 277 281 277 275 274 275 272 279 280 279 281 281 281 280 276 277 281 280 282 281 281 281 281 276 275 275 277 275 271 274 276 275 276 275 275 275 274 273 272 270 269 268 267 266 265 266 265 263 263 263 262 262 261 260 259 259 260 259 259 259 259 260 259 259 259 259 259 259 259 258 259 259 259 260 261 261 262 262 263 263 264 264
284 284 284 281 278 277 275 273 273 273 276 283 276 278 278 279 280 278 274 274 280 280 281 281 280 280 278 275 274 276 275 271 273 276 275 275 275 275 274 273 272 271 270 269 268 267 265 265 265 264 263 263 261 262 261 260 260 259 258 259 259 259 258 258 259 259 258 258 259 259 258 258 258 259 259 259 260 261 261 262 263 264 264 265 265 265
280 279 279 277 277 278 277 274 273 277 277 278 276 277 278 279 280 279 272 275 279 278 279 280 280 279 277 277 276 276 275 272 275 277 276 275 275 274 273 271 270 269 268 267 266 265 265 264 263 262 262 261 261 261 260 260 259 258 258 258 258 258 257 258 258 258 258 258 258 258 258 258 258 259 259 260 261 262 263 264 264 264 264 265 265 265
276 275 279 274 277 278 278 275 277 278 284 279 277 278 279 281 280 271 271 282 279 277 277 279 279 279 278 276 276 274 278 278 277 277 276 275 273 273 272 272 270 269 268 267 266 266 263 263 263 262 261 261 261 260 259 259 258 257 257 257 257 257 257 258 258 258 258 257 257 257 257 258 259 259 260 261 262 263 263 263 263 263 264 264 265 265
274 275 274 277 275 275 276 275 275 278 283 279 280 279 281 279 270 274 283 280 279 277 278 280 279 278 278 278 277 279 276 274 276 276 275 274 273 272 271 269 268 267 267 267 266 263 262 262 261 260 260 260 260 259 259 258 257 257 257 256 256 257 257 257 257 257 256 256 256 257 257 258 259 260 261 262 262 262 262 263 263 263 263 263 264 264
275 273 272 274 276 275 275 272 271 270 280 281 279 277 281 278 280 282 277 278 279 279 278 278 279 278 279 278 278 276 274 275 275 275 274 274 272 270 269 268 267 266 264 263 262 263 262 261 260 260 259 259 259 259 259 257 256 256 256 255 256 257 257 257 256 256 255 255 256 256 257 258 259 260 261 261 262 262 261 262 262 262 262 263 263 264
282 275 273 276 279 271 273 270 271 279 280 281 280 277 279 285 284 279 281 278 278 278 278 278 278 278 279 278 276 275 275 274 274 274 274 272 272 271 269 268 266 264 263 263 262 261 260 260 259 258 258 258 258 258 258 257 255 255 255 255 256 257 256 255 255 255 254 255 256 257 258 259 260 261 261 261 261 261 261 261 261 261 261 262 263 263
283 282 283 278 281 277 276 279 282 278 281 282 284 283 283 285 280 281 281 280 278 278 277 279 278 278 279 278 277 276 274 275 274 274 273 272 270 269 267 266 265 264 263 261 261 261 259 258 257 257 257 258 257 257 257 257 255 254 253 255 256 255 255 254 254 253 253 254 255 257 258 259 260 260 260 260 260 260 260 260 260 259 261 262 262 263
285 287 283 283 282 285 286 286 280 278 279 281 283 279 281 281 278 280 281 279 279 280 279 279 279 278 278 279 277 276 276 276 274 274 273 271 269 268 266 265 263 262 261 260 260 259 258 257 256 255 255 256 257 257 256 256 255 253 254 255 255 255 254 253 252 252 253 254 256 257 258 259 259 260 260 260 260 260 260 260 260 260 260 261 262 262
284 283 283 283 283 282 278 288 284 282 280 281 282 280 278 281 280 280 280 281 280 280 279 279 279 279 279 279 278 277 277 276 275 274 272 270 268 267 265 264 262 261 260 259 260 258 257 255 255 254 254 254 256 256 256 255 255 255 255 254 254 254 253 252 252 253 253 254 256 257 258 258 258 259 259 259 259 260 260 260 260 260 261 261 261 262
281 286 281 282 283 282 284 282 279 283 282 282 282 281 280 279 280 280 280 281 281 281 281 279 279 279 279 278 279 278 277 276 274 272 270 269 267 266 264 262 261 260 260 260 258 257 256 255 255 254 254 254 256 256 255 254 254 254 253 254 254 252 252 251 252 252 253 254 256 257 258 258 259 258 258 258 258 258 259 259 260 260 260 261 261 262
285 284 279 283 281 283 286 283 279 280 281 280 281 282 282 281 280 280 280 280 280 279 279 279 280 279 279 279 279 278 276 275 274 272 270 268 266 265 264 262 261 260 259 258 257 256 256 255 254 254 254 255 255 255 253 253 253 253 253 254 252 252 251 251 252 252 253 255 256 257 258 258 257 257 257 257 258 258 259 259 260 261 261 263 264 265
283 281 284 281 279 280 281 284 282 278 279 282 280 281 282 282 281 280 279 278 279 278 278 278 278 279 280 280 279 278 276 274 273 271 269 268 266 264 262 260 259 258 258 258 256 255 255 254 253 253 253 254 255 253 252 252 252 252 253 252 252 251 250 251 251 252 253 255 256 257 257 257 257 257 257 257 257 257 258 261 265 264 262 262 267 270
285 286 285 281 282 282 286 288 287 286 287 287 283 283 282 282 281 279 279 279 279 279 279 278 277 276 277 277 278 277 276 274 271 270 268 266 264 263 261 259 258 258 257 256 255 254 254 255 254 253 252 253 253 252 251 251 252 252 252 253 252 252 250 250 251 252 253 254 255 257 257 256 256 257 257 257 257 256 256 257 258 264 267 268 268 268
Wind_Speed
1 2 2 5 6 6 3 3 3 3 5 3 0 2 8 5 10 6 5 7 1 2 11 13 11 11 10 9 13 13 8 7 6 10 10 9 10 9 8 8 8 7 7 6 7 5 4 4 2 1 1 3 4 4 3 4 4 4 3 6 8 6 7 8 9 9 10 10 11 9 9 10 10 11 10 8 8 10 9 12 14 14 14 17 17 16
3 3 5 6 7 8 5 3 1 0 2 3 4 4 9 4 9 9 5 1 0 4 6 2 4 9 12 8 10 7 8 14 14 14 13 12 12 10 11 10 9 7 2 4 4 3 1 2 2 2 3 3 4 4 4 4 4 4 5 6 5 5 5 6 6 8 8 6 7 9 10 10 9 8 10 11 9 10 10 11 15 15 16 15 14 15
2 4 7 4 4 3 0 0 1 3 2 0 3 2 4 9 5 13 5 3 1 1 11 9 10 9 9 10 7 11 16 16 17 19 20 20 16 12 10 10 9 5 5 6 7 3 0 0 1 1 1 1 1 3 4 4 4 4 4 4 4 4 4 4 5 7 6 6 6 8 9 10 11 8 6 8 10 10 13 14 13 15 15 15 16 13
7 3 6 1 4 2 1 1 1 0 0 3 1 1 8 4 3 9 2 4 2 1 6 6 13 8 9 10 14 12 15 14 12 11 8 11 16 15 14 11 10 8 7 6 6 5 0 0 0 1 1 2 3 3 4 4 3 2 3 4 3 3 4 5 6 5 5 6 7 7 9 10 9 11 12 10 7 8 11 13 12 11 12 15 14 14
8 4 1 4 2 3 3 0 2 0 7 3 4 4 6 7 7 7 6 4 4 6 2 11 14 7 10 14 13 6 8 9 6 6 5 7 6 6 5 6 8 10 6 6 5 3 2 1 0 1 2 2 2 3 3 3 2 2 4 3 2 2 4 4 4 4 5 7 9 9 10 7 9 8 8 11 12 11 10 11 10 11 10 12 13 14
9 4 2 3 1 1 2 2 4 4 3 5 6 11 10 7 8 7 5 6 5 4 3 3 10 1 5 11 15 1 1 9 5 10 12 12 9 8 10 9 7 6 6 7 6 5 3 2 2 1 2 2 3 3 3 2 3 3 3 2 2 3 3 4 4 4 5 7 9 11 12 15 13 13 10 9 13 16 16 15 12 14 15 13 13 12
3 1 0 4 4 2 1 3 3 5 5 1 7 3 7 6 4 3 5 5 5 1 2 2 3 13 3 3 8 5 6 12 4 11 12 11 11 10 9 9 8 8 4 2 3 2 2 2 1 3 3 3 2 3 3 3 4 4 3 1 1 2 3 3 3 4 5 7 7 8 9 9 11 13 12 10 9 9 12 12 13 14 12 15 14 13
2 0 4 2 2 2 2 4 4 8 5 5 2 3 4 1 3 3 1 2 6 0 8 3 4 10 14 10 9 9 11 12 10 11 11 12 12 11 9 8 8 8 6 7 6 5 3 3 4 3 3 3 3 3 3 4 4 4 3 1 3 3 3 4 3 4 4 7 8 9 9 9 9 10 13 14 13 12 11 13 14 13 13 13 12 12
3 3 2 2 1 3 6 5 4 7 5 4 2 3 0 2 3 1 3 5 1 4 11 5 4 4 9 5 2 2 8 10 14 14 14 13 13 11 10 9 8 8 7 7 6 5 4 4 3 4 4 4 3 3 3 4 4 4 2 2 3 3 4 4 3 3 4 4 7 8 8 10 9 9 11 11 11 13 12 15 13 12 13 11 12 12
2 2 6 7 5 7 5 3 6 9 4 2 3 1 1 0 1 2 4 3 3 1 12 11 8 5 18 5 1 1 5 12 14 17 17 16 15 11 10 9 9 7 7 6 7 6 5 4 4 5 3 3 4 4 4 4 4 4 3 3 2 4 3 3 4 3 4 4 5 8 8 11 13 10 10 9 11 11 12 14 15 13 12 12 12 12
2 3 5 3 6 4 3 1 3 1 1 3 4 2 4 3 3 2 3 2 3 3 16 10 11 10 11 4 9 8 11 12 12 5 6 9 9 8 10 11 10 9 7 6 6 5 6 5 4 1 3 3 3 3 4 5 4 4 4 2 3 4 4 4 4 4 4 4 5 7 8 10 13 14 12 12 13 11 12 13 13 12 13 11 12 12
3 1 1 2 3 3 3 3 3 1 1 1 2 2 6 5 5 2 3 4 1 9 6 4 13 12 9 7 7 11 4 4 10 12 16 18 18 13 13 11 10 9 8 7 7 5 5 4 3 1 2 3 4 4 5 5 5 5 2 2 5 6 5 4 4 4 5 5 6 6 7 10 12 12 10 12 14 12 14 13 14 14 12 13 12 11
3 7 2 4 3 8 2 3 1 4 3 3 2 3 2 7 5 4 2 3 6 10 2 1 3 5 14 19 5 11 14 8 6 10 16 19 16 14 13 12 10 8 8 7 6 6 4 4 4 3 4 3 4 4 5 7 5 2 3 4 5 8 6 6 4 5 6 6 6 7 9 10 10 11 10 11 12 12 12 13 15 16 15 14 12 9
8 1 1 3 2 4 7 6 2 0 0 5 3 3 1 3 1 6 5 3 6 5 3 4 2 10 10 11 14 20 15 9 8 10 11 13 17 18 16 12 9 8 7 8 6 5 4 4 4 4 4 3 4 5 7 5 2 2 4 4 5 8 6 6 7 7 8 7 6 6 8 10 10 11 10 10 11 13 12 12 14 13 12 14 12 13
2 5 6 6 4 3 8 7 9 4 7 8 2 7 6 5 2 6 4 8 12 11 3 3 2 8 1 6 1 6 7 8 6 7 5 8 14 14 9 8 7 8 6 6 6 5 5 5 5 4 3 4 5 7 6 3 2 3 4 5 6 9 9 7 8 8 9 9 8 7 9 10 9 10 10 10 10 12 13 12 13 12 13 13 13 13
9 7 4 1 1 6 8 2 5 6 3 2 2 4 4 8 5 8 5 5 8 9 11 3 8 5 8 1 0 1 2 2 1 3 8 10 10 10 10 11 9 8 8 6 5 5 5 5 3 3 3 5 7 6 2 3 3 4 5 5 6 8 10 10 10 10 9 10 9 9 10 11 10 10 10 10 11 11 10 12 14 13 14 12 14 14
1 5 1 1 2 2 3 3 2 3 3 3 5 6 8 2 5 4 4 0 1 0 16 3 10 9 6 5 2 1 3 1 2 4 8 11 12 10 11 9 9 8 7 7 5 5 4 3 3 4 5 7 5 3 4 4 4 5 6 6 8 8 8 9 10 11 10 11 11 11 10 10 10 11 12 13 14 14 12 12 11 13 14 12 12 12
4 7 1 4 4 1 1 1 1 2 4 7 3 8 1 2 3 3 4 2 1 5 11 2 12 20 5 15 4 2 2 3 2 5 7 9 10 12 10 9 9 8 7 7 6 5 4 4 4 6 7 4 2 3 4 5 5 5 5 5 7 9 11 11 10 10 10 11 12 13 12 11 11 11 12 13 14 12 13 12 12 13 11 13 11 11
5 8 3 2 1 2 1 1 2 0 1 4 4 2 2 4 2 0 3 5 2 6 8 6 6 20 13 14 2 4 8 9 7 5 7 10 10 11 9 9 8 7 5 4 4 4 4 5 6 6 4 3 3 3 4 5 6 6 5 4 5 8 10 11 10 10 10 9 9 10 11 12 13 12 12 13 13 12 12 13 15 14 13 14 11 13
1 3 5 1 2 1 1 4 6 4 1 1 0 2 0 1 5 3 6 3 0 12 6 12 5 23 3 6 9 11 15 13 10 8 12 17 15 12 10 9 9 7 6 5 4 4 5 6 4 3 3 3 4 4 4 5 5 6 5 6 6 8 9 10 11 11 12 12 11 12 11 11 11 12 11 12 11 14 13 15 15 14 15 12 12 12
3 3 7 0 4 1 3 5 9 10 8 3 1 4 1 2 2 2 1 4 6 6 9 10 11 20 4 6 8 11 15 15 17 17 15 14 12 11 10 10 8 8 6 6 5 5 4 3 3 3 2 3 3 4 4 4 5 5 5 6 6 9 11 11 11 10 11 11 13 14 14 13 12 12 13 13 13 14 13 14 14 14 13 12 13 11
2 2 9 3 1 6 8 3 8 10 12 10 12 11 13 7 5 3 11 4 5 7 8 8 14 24 3 2 8 8 10 13 14 17 17 12 11 12 10 9 9 8 6 6 5 3 1 2 3 3 3 2 3 4 5 6 5 6 6 6 7 8 9 11 12 11 12 11 12 14 13 14 13 11 13 14 14 13 14 13 12 14 12 14 12 10
5 3 1 8 9 10 6 2 2 3 1 3 8 9 10 7 4 5 11 6 0 10 5 2 8 24 9 4 5 6 6 11 14 15 14 10 12 11 10 9 7 8 6 7 2 1 2 3 3 3 3 4 4 5 5 5 5 6 6 8 7 8 11 10 11 11 11 12 13 13 13 13 12 14 14 14 14 14 15 13 13 12 12 13 12 12
4 1 1 9 5 2 3 2 4 3 1 2 6 3 5 11 15 15 12 3 6 3 4 6 12 22 1 1 2 4 5 9 12 15 14 10 9 10 10 8 9 6 5 3 1 2 3 3 2 3 4 4 4 4 5 5 5 5 6 8 9 10 11 11 11 11 12 12 13 12 13 13 12 15 13 13 12 14 14 13 16 16 18 15 13 13
3 5 6 5 6 7 2 4 3 2 2 5 5 9 15 11 6 1 4 1 3 16 6 6 21 21 1 1 2 2 3 6 9 6 9 11 9 9 9 8 7 6 5 4 4 4 3 2 3 4 4 4 4 4 4 5 5 6 8 7 9 10 10 10 11 12 12 12 14 13 13 14 13 13 14 15 13 16 15 16 17 16 15 17 16 13
5 5 8 5 9 10 13 5 5 6 11 5 3 4 8 12 14 3 7 8 15 7 9 13 20 21 2 3 1 2 4 5 6 6 5 8 11 10 8 9 8 6 6 6 5 3 3 4 3 3 4 4 4 4 4 5 6 7 8 8 7 10 12 11 11 11 12 13 13 14 15 14 15 14 15 18 19 18 19 18 19 17 17 15 19 18
3 1 7 12 11 15 18 13 1 6 4 5 8 11 11 11 12 11 7 10 17 9 12 25 23 23 24 7 5 5 6 10 9 7 9 8 8 10 9 9 8 7 7 7 6 5 2 3 5 5 4 4 3 3 4 5 6 7 8 9 9 9 11 12 12 13 13 14 13 14 14 14 15 15 16 14 16 18 16 19 16 17 17 17 17 19
2 3 12 13 16 20 20 18 5 4 12 14 13 13 11 12 12 16 17 21 8 3 20 26 19 18 30 18 11 9 10 9 8 10 9 7 10 12 11 9 7 6 5 4 3 4 5 6 5 4 3 3 3 3 4 4 5 7 8 10 11 10 9 10 12 14 14 14 15 14 15 15 16 14 17 19 18 16 17 15 17 18 17 17 19 18
5 10 14 8 17 19 20 18 7 5 8 13 19 19 7 13 13 20 23 25 14 13 24 31 20 18 25 18 8 13 14 14 14 14 15 14 11 7 8 9 9 8 6 5 6 6 7 6 4 3 2 2 3 5 6 7 8 8 8 8 9 9 10 11 11 13 13 13 13 15 15 15 14 15 17 16 15 18 18 19 18 18 18 17 18 16
2 9 12 7 14 15 18 14 7 13 15 16 26 25 12 14 20 22 22 25 22 23 28 27 27 32 28 23 12 11 9 11 11 8 6 8 11 13 12 10 9 8 8 9 9 8 6 3 2 2 1 2 4 5 7 9 10 9 10 11 10 10 10 11 12 12 14 14 14 14 15 15 15 15 15 16 19 18 19 17 18 18 18 18 18 18
7 9 5 4 9 16 19 7 8 11 14 20 30 25 16 17 17 20 22 26 21 22 27 29 29 29 29 21 12 7 7 5 4 9 13 13 12 14 13 11 10 10 10 9 8 6 3 2 2 1 1 3 4 6 7 7 8 9 10 9 11 12 11 11 13 13 13 15 15 15 15 15 14 15 16 18 18 16 16 15 16 15 17 17 17 18
7 6 4 2 7 15 10 5 6 4 6 18 29 28 15 16 19 22 19 24 17 24 27 21 17 23 27 17 3 9 7 11 12 11 10 10 13 14 14 12 10 10 9 8 6 3 2 3 1 1 3 4 5 6 6 8 9 9 9 10 11 12 11 11 12 13 14 14 15 15 15 14 14 16 15 14 13 13 15 13 15 13 14 14 18 17
9 5 5 5 8 15 3 7 5 1 6 16 30 24 21 25 26 22 19 19 22 22 15 16 23 25 20 3 5 4 9 11 10 11 10 9 12 14 15 12 11 9 9 7 5 4 4 2 0 3 3 4 5 6 6 7 8 9 10 11 11 11 11 12 12 13 14 14 14 14 14 14 15 16 16 16 13 14 14 14 16 14 14 17 16 16
4 8 9 6 7 7 5 4 5 1 8 25 3 6 13 16 18 21 23 25 24 15 19 21 23 18 8 10 11 10 8 9 11 12 14 16 14 12 9 10 10 9 7 5 5 5 3 1 2 4 4 3 3 4 4 5 6 8 9 10 10 11 12 12 14 13 14 14 14 14 14 14 15 14 16 14 14 16 13 15 13 16 16 16 17 16
13 12 9 5 4 6 4 4 1 8 24 2 1 0 8 11 12 19 24 25 19 17 21 21 24 21 21 16 12 7 8 7 6 8 7 10 15 14 14 11 10 9 9 7 5 4 3 2 3 3 4 4 5 4 5 6 6 9 10 10 12 10 11 12 13 14 14 15 15 15 14 15 15 14 16 16 16 16 16 16 17 16 15 16 16 17
11 11 5 3 3 3 3 5 3 20 11 14 9 7 2 3 2 3 15 23 21 17 15 20 26 24 21 18 10 5 7 4 4 1 8 8 9 12 12 11 10 9 8 6 6 4 3 3 5 6 5 3 4 5 5 7 8 10 11 9 10 11 10 12 12 13 13 15 15 15 15 17 19 18 18 17 19 17 17 17 19 18 18 15 15 15
14 8 7 8 6 11 9 10 19 12 22 29 25 5 8 9 8 10 13 23 15 11 18 18 22 22 17 11 3 6 8 6 4 2 2 5 6 8 13 10 11 8 6 5 6 5 5 6 6 6 4 4 4 4 6 8 9 9 10 9 9 9 10 11 13 14 15 15 16 16 16 16 16 19 19 18 17 19 19 18 19 14 12 15 15 15
11 15 10 10 8 12 11 9 4 8 12 24 1 1 1 4 6 5 1 16 8 10 12 17 19 19 10 5 7 9 9 6 3 8 6 3 5 8 4 7 5 6 7 7 6 6 6 7 7 5 4 2 3 5 6 7 8 9 9 10 10 11 12 12 13 14 14 15 15 16 16 15 16 18 19 15 19 20 18 14 12 12 11 13 15 15
5 2 6 14 6 6 8 11 11 11 18 15 5 3 4 6 10 7 3 14 8 13 13 14 15 11 8 11 9 11 8 7 11 9 9 9 8 8 11 7 7 7 6 5 6 7 7 6 5 4 3 3 6 7 7 8 6 8 9 10 11 11 12 12 14 14 15 16 17 17 16 16 17 17 19 19 18 18 19 16 17 16 12 12 13 14
10 7 6 6 12 12 12 9 12 8 16 5 8 5 8 11 8 4 4 14 2 6 7 10 11 8 8 11 14 11 11 8 13 9 12 12 11 9 11 12 9 8 6 6 7 8 8 5 5 6 6 6 6 6 7 6 7 8 9 10 10 10 11 13 14 15 15 16 16 14 16 15 17 18 17 19 20 19 17 17 17 16 17 15 13 13
8 2 10 19 17 16 14 10 6 11 15 9 12 10 9 7 8 3 12 18 10 9 8 9 11 9 11 13 13 10 14 7 3 10 16 12 10 7 5 7 8 8 7 7 7 8 6 6 6 6 5 5 5 4 5 5 7 8 8 9 10 11 12 13 13 15 15 15 15 16 16 15 15 19 19 17 17 17 17 17 17 17 16 16 14 14
2 3 3 5 10 15 11 12 14 12 13 10 10 18 12 7 2 19 11 8 14 10 9 11 10 10 13 15 14 10 4 5 9 14 15 14 13 11 10 10 9 8 7 9 9 7 6 6 6 5 4 4 5 4 5 5 7 8 8 9 10 11 12 13 14 14 14 15 15 16 16 16 16 16 15 15 16 18 17 16 16 15 15 14 14 16
14 12 11 12 5 3 2 8 2 11 9 24 16 8 8 8 16 5 6 0 6 12 12 8 10 10 13 11 9 7 8 9 14 16 15 13 13 13 11 10 9 9 8 8 7 7 6 6 4 4 4 4 3 4 5 6 7 8 8 9 11 11 12 12 13 14 14 14 15 15 16 16 17 16 14 15 16 17 17 16 15 15 14 15 14 14
9 7 4 7 10 9 11 12 15 16 7 23 24 16 16 26 6 8 8 7 3 6 10 8 7 10 11 12 11 9 10 11 8 13 12 10 10 10 9 8 7 8 8 8 8 6 4 5 3 3 3 3 3 4 4 5 7 8 9 10 10 11 11 11 12 13 13 13 14 15 15 15 15 14 14 15 16 15 16 16 15 13 12 13 13 13
19 17 14 12 11 11 13 18 13 8 16 20 19 3 11 16 4 8 8 11 9 6 4 8 10 8 11 12 12 14 10 12 16 15 17 14 12 12 12 9 8 8 8 8 7 5 4 4 2 2 2 5 3 4 4 4 6 8 9 9 10 11 11 12 12 12 13 14 14 14 14 14 14 14 14 15 15 15 15 16 15 13 13 12 13 13
1 14 7 3 9 16 11 11 5 2 7 16 14 2 4 6 4 5 9 9 7 9 9 9 9 11 9 12 13 9 14 12 13 11 9 12 12 9 9 11 10 8 9 8 6 4 4 4 3 3 3 4 3 3 3 3 4 6 9 9 9 10 11 12 13 13 14 13 13 14 14 15 14 13 13 14 13 13 13 14 14 13 13 13 12 13
7 4 6 10 1 7 11 22 19 14 8 15 19 7 2 5 9 7 8 9 8 8 9 5 11 11 13 12 16 15 11 13 14 12 12 11 11 12 10 9 8 8 7 8 6 6 5 4 4 3 3 3 3 3 3 3 4 5 7 8 9 10 10 11 11 12 12 13 13 12 12 14 13 14 13 12 11 12 14 13 12 12 13 11 13 12
5 13 7 14 13 13 25 4 3 8 16 19 15 14 11 8 9 7 5 7 10 10 11 9 7 9 10 12 13 14 13 12 14 12 11 11 11 11 11 11 10 8 6 7 7 6 5 5 4 2 1 1 3 3 3 4 4 5 6 6 7 8 9 9 10 11 12 13 11 11 12 12 16 16 12 13 12 12 12 13 13 13 13 13 15 12
6 15 10 14 14 19 20 10 2 5 4 9 13 14 13 12 12 9 7 7 9 10 7 6 9 12 12 14 12 13 13 12 14 15 14 10 10 10 10 10 9 9 9 9 5 5 6 4 3 2 0 0 1 2 3 3 4 4 6 7 6 7 8 9 10 11 10 10 10 10 11 11 12 12 13 13 13 12 10 11 13 13 12 16 13 15
8 14 4 8 10 17 19 24 14 7 11 15 19 22 16 13 13 13 8 8 10 12 11 11 5 7 11 12 13 13 16 11 9 12 13 12 12 11 11 11 9 9 7 6 7 6 5 5 4 2 1 1 0 2 3 4 4 4 5 5 6 7 8 9 9 9 9 9 9 9 11 10 11 12 12 13 13 14 14 15 19 17 15 14 26 31
18 18 13 14 17 22 24 23 17 20 20 12 14 16 15 13 14 15 16 14 13 14 14 14 11 7 6 5 8 14 13 14 12 10 12 10 10 10 12 13 12 9 9 8 8 6 5 4 3 2 1 0 0 1 2 3 4 4 5 6 7 7 7 8 7 7 8 9 8 11 11 10 10 11 11 12 13 14 13 14 13 20 26 28 29 30
Wind_Direction
103 75 307 274 254 216 218 174 192 208 184 233 178 209 253 237 278 273 256 259 209 281 245 249 245 253 258 214 209 203 186 210 195 197 197 195 191 193 193 192 196 194 202 200 187 196 195 129 127 137 50 17 353 355 332 329 340 357 16 13 7 356 1 7 4 0 353 349 344 344 339 330 331 324 321 318 322 319 314 314 314 318 322 320 317 316
67 31 283 229 226 192 200 218 199 354 160 209 249 257 281 215 256 267 280 350 344 175 285 286 259 254 255 243 223 197 184 208 202 202 201 197 197 194 190 192 195 204 223 176 204 218 225 74 56 17 31 36 19 319 319 339 346 6 16 15 350 353 5 11 6 352 350 354 346 333 329 326 319 323 323 322 321 315 312 318 321 320 316 313 312 314
7 264 252 243 207 151 35 190 194 207 234 189 205 254 320 271 242 283 296 301 242 145 264 283 270 258 259 259 230 197 200 211 206 198 198 189 191 193 192 191 191 191 197 192 202 208 250 324 40 15 347 317 247 283 313 336 3 3 3 339 351 355 7 0 359 355 347 341 338 336 323 327 319 309 298 300 306 310 316 318 318 316 314 316 313 310
342 292 248 225 131 144 328 35 155 36 94 202 199 295 250 240 14 304 295 8 324 175 288 286 276 262 255 256 248 210 203 218 214 213 211 198 190 190 190 185 180 187 188 184 180 186 222 315 266 345 323 278 306 331 338 346 343 330 332 330 353 358 4 359 350 349 337 333 328 325 321 318 315 312 312 304 291 294 309 313 314 309 314 310 305 308
230 223 148 110 120 170 228 315 156 218 275 272 191 221 258 277 249 207 279 327 293 299 246 283 280 256 220 240 255 241 211 219 210 188 199 215 216 195 184 193 182 181 184 176 194 208 227 64 86 231 250 295 335 319 309 315 300 306 305 309 343 5 357 341 336 340 338 335 334 330 322 313 309 305 309 315 317 318 311 303 310 313 307 302 298 299
281 273 136 109 97 114 148 261 221 150 266 312 230 204 229 244 273 281 325 2 359 322 313 53 323 226 254 219 241 322 136 220 200 191 202 199 194 193 194 195 198 194 189 167 181 187 180 187 267 297 310 320 307 303 292 266 263 271 285 300 357 358 342 336 338 349 352 347 341 337 337 334 331 320 323 322 322 322 324 322 318 315 317 309 304 302
228 356 101 185 161 141 155 198 241 149 197 48 272 197 229 237 239 291 322 22 299 250 306 56 221 286 121 223 238 222 213 229 186 209 207 195 197 198 193 188 186 185 198 183 156 162 157 224 221 284 280 258 278 272 268 270 268 277 280 291 339 334 322 327 342 359 355 341 337 333 324 318 315 311 305 304 298 298 305 308 310 312 309 310 306 304
117 3 55 56 118 149 227 279 242 160 128 236 250 110 106 118 257 265 323 201 250 304 283 235 166 268 286 250 239 212 213 224 217 221 210 202 199 198 191 185 185 189 179 173 174 175 198 219 206 229 251 263 235 251 270 268 278 272 274 302 324 324 336 339 350 354 360 334 330 324 319 309 302 296 298 308 309 306 302 303 305 306 308 307 303 302
148 193 185 149 99 174 224 209 190 157 155 220 213 148 242 219 249 251 271 274 266 22 292 255 144 277 251 274 337 145 224 240 234 217 211 205 204 194 185 188 194 190 183 165 165 188 200 215 229 219 247 243 251 257 250 268 268 260 259 276 299 327 338 327 338 337 331 327 316 312 307 305 296 292 293 298 300 303 303 301 301 302 305 302 302 299
279 192 211 164 150 234 220 231 169 155 215 281 169 162 45 45 159 233 260 296 330 62 273 261 169 208 273 183 135 338 261 252 235 220 211 203 200 188 180 192 196 189 184 174 168 181 204 216 226 224 224 268 243 244 259 269 271 265 243 257 300 320 328 315 320 313 309 306 304 301 302 299 301 301 295 291 295 298 303 301 301 303 301 304 302 300
232 326 151 144 209 212 151 94 148 203 147 122 65 3 349 12 15 34 61 89 47 252 245 239 180 182 281 191 187 160 217 211 226 222 199 206 204 188 189 190 187 181 174 175 180 200 207 222 226 235 237 247 281 278 273 271 266 248 244 262 325 311 319 322 307 300 294 296 291 293 296 299 301 302 300 302 299 300 300 300 300 302 302 298 299 302
345 6 176 260 69 103 107 90 16 67 38 107 42 60 351 318 8 34 341 41 127 264 257 205 192 195 215 276 226 227 250 208 199 195 195 200 198 184 190 193 183 176 171 174 177 203 229 267 278 218 259 256 262 286 277 271 255 243 267 340 329 322 321 314 300 297 295 294 293 285 292 297 298 297 296 298 297 301 300 300 300 303 301 299 299 297
278 219 240 324 214 131 116 92 318 20 6 72 63 36 25 284 7 316 44 303 190 234 230 89 132 311 232 244 223 243 243 241 216 202 200 198 185 180 191 188 182 174 166 172 185 205 226 217 238 256 244 259 271 258 266 266 256 277 340 333 323 315 314 304 295 298 299 299 294 297 299 298 297 291 287 286 291 295 298 300 300 302 302 302 298 293
276 293 309 240 26 219 132 136 243 353 251 112 150 161 104 325 13 272 255 229 295 277 257 89 101 248 270 273 226 241 241 235 221 222 211 186 173 183 185 180 172 171 172 180 188 199 208 218 225 216 223 238 254 261 261 261 287 326 317 313 311 305 308 304 307 306 307 303 295 293 295 296 296 290 286 287 288 293 292 293 293 293 293 294 292 297
330 335 263 158 232 172 176 184 178 165 158 198 134 147 186 150 191 277 284 279 285 286 284 239 55 233 170 237 276 255 292 282 226 221 191 169 176 176 166 157 161 173 185 179 194 196 208 222 210 208 222 241 250 255 259 291 318 307 307 314 314 309 311 313 311 314 313 309 303 295 291 291 290 287 288 287 287 289 291 289 288 286 287 286 291 289
210 227 257 260 264 151 175 204 126 101 70 169 166 79 88 228 138 222 213 245 299 324 302 156 214 197 225 49 279 311 5 17 41 112 132 145 154 157 164 171 176 177 182 193 192 217 232 223 216 214 244 247 249 253 297 327 306 311 308 308 305 306 312 318 317 316 312 306 299 294 293 291 289 288 288 288 287 285 282 285 286 285 285 284 287 288
77 266 271 335 33 168 188 148 201 136 209 221 106 205 210 160 153 273 350 203 59 80 260 215 282 260 313 253 228 35 83 16 84 141 146 159 167 167 171 173 178 181 184 189 200 209 231 250 235 225 233 243 253 318 337 312 310 303 303 307 310 314 314 314 315 314 314 307 305 299 294 291 293 294 293 291 290 288 285 282 282 283 283 281 281 286
215 260 225 128 213 260 209 140 100 11 141 103 204 238 200 138 101 127 236 317 183 225 270 139 271 285 93 293 64 73 171 205 192 176 170 165 171 176 180 180 181 184 190 195 197 200 207 212 224 234 239 250 318 325 310 299 295 290 291 302 313 318 318 315 315 313 308 307 305 303 302 300 297 296 292 290 290 290 290 288 288 285 283 282 280 281
109 300 225 304 87 338 346 126 349 309 359 160 189 241 126 241 297 29 86 281 265 249 277 261 284 268 238 252 130 224 204 208 201 191 175 186 193 190 184 188 188 189 187 194 207 219 231 226 232 237 264 320 330 285 261 276 283 288 300 307 312 311 310 310 312 308 302 299 298 298 301 302 303 299 295 291 287 287 284 288 289 287 283 283 279 281
38 230 305 337 105 319 7 101 207 212 338 71 358 319 234 110 228 152 199 221 157 274 286 282 338 282 125 213 201 206 204 197 180 187 200 199 193 186 187 184 185 190 191 194 200 215 221 232 236 256 297 305 279 267 268 275 286 300 312 320 318 310 307 308 309 309 306 306 301 299 299 298 295 294 292 291 294 295 291 292 290 287 285 283 283 282
202 109 259 357 312 96 184 188 211 164 183 190 165 248 336 210 223 125 312 164 215 263 255 287 295 273 137 196 178 196 200 195 178 192 201 205 194 195 186 178 185 187 190 193 200 214 227 250 287 293 283 255 256 257 277 287 296 301 311 316 316 313 311 311 308 306 304 307 306 306 306 303 302 299 298 295 293 292 291 293 291 287 285 287 284 283
123 166 223 107 300 214 238 224 199 177 184 181 179 208 198 175 253 246 258 107 215 217 253 242 266 269 187 224 198 182 204 193 186 191 201 195 189 191 184 187 183 183 194 191 209 203 266 295 282 291 294 270 273 285 294 299 310 323 319 312 313 309 308 310 310 310 307 306 303 303 303 303 302 300 300 297 296 293 295 293 290 288 287 286 283 279
161 144 163 230 210 223 222 252 306 222 260 204 172 226 175 199 149 194 260 230 11 235 238 277 289 267 123 190 186 189 193 190 182 195 205 184 190 188 184 185 193 177 183 198 206 193 240 238 252 260 261 267 273 285 297 303 307 308 310 313 313 312 308 310 306 308 309 307 306 304 303 302 301 302 298 297 296 297 298 294 292 292 289 290 288 285
113 181 236 269 301 331 53 332 18 37 185 298 259 185 147 201 197 206 225 188 210 234 133 245 238 265 44 98 215 207 198 185 185 197 191 181 182 185 179 184 181 179 189 192 166 236 240 245 276 286 280 282 286 294 296 293 299 307 311 317 317 313 312 312 312 310 309 306 303 304 303 302 302 301 300 296 296 294 298 297 302 303 301 295 294 291
118 248 156 288 335 314 321 8 341 343 51 227 216 206 210 221 216 262 71 111 278 238 176 210 258 268 137 323 39 99 152 170 196 207 176 175 185 179 181 179 177 178 179 188 208 227 257 282 276 257 253 263 274 280 281 297 314 321 318 320 317 312 312 314 314 313 311 309 306 305 305 303 304 301 301 300 301 303 301 304 307 304 300 300 296 294
180 182 143 194 227 272 276 247 231 239 220 219 236 226 216 204 212 129 247 227 239 237 171 236 252 260 256 328 258 226 206 194 206 183 190 183 174 176 178 179 177 172 183 194 207 231 238 236 245 255 256 257 264 273 299 317 321 321 317 315 318 316 318 317 315 310 310 311 309 309 309 307 305 303 304 309 308 308 312 306 308 305 304 300 300 299
188 201 199 209 204 233 244 261 150 113 87 205 230 208 207 206 208 212 230 235 235 238 236 243 243 272 265 222 265 222 212 198 192 190 189 192 193 181 174 173 175 179 187 193 197 210 227 261 246 237 238 248 266 294 314 322 322 320 319 318 323 322 317 317 316 314 314 313 309 304 299 301 303 305 302 303 308 307 306 309 306 309 307 306 301 299
77 240 230 220 226 236 246 253 235 158 255 255 253 235 190 198 190 201 211 234 213 71 257 257 246 250 265 260 224 223 218 218 206 192 197 190 184 179 177 174 178 184 197 189 193 206 223 232 235 233 245 267 291 317 317 316 320 324 328 325 323 321 318 315 317 316 315 315 310 306 302 300 304 303 310 310 308 306 308 308 311 309 309 306 302 300
168 225 241 196 238 246 250 255 255 253 243 262 264 261 201 194 198 207 225 235 223 216 246 262 264 252 259 260 229 214 210 206 201 201 197 187 171 161 162 173 183 190 194 192 209 213 220 228 225 241 258 292 331 338 331 331 336 336 327 320 315 317 319 318 315 313 312 312 307 303 303 302 305 308 310 308 309 312 313 313 312 310 308 305 301 296
130 243 250 187 245 245 254 256 255 256 267 268 263 258 236 211 213 219 233 239 227 239 248 261 269 266 268 266 254 238 201 206 207 189 162 153 173 175 174 179 186 189 191 199 208 215 220 224 241 259 287 357 347 343 345 342 336 334 327 321 322 320 318 321 313 313 313 310 307 304 304 304 305 308 311 314 315 315 314 310 311 309 307 303 299 296
164 251 220 200 249 259 257 244 235 238 249 261 264 260 243 244 241 232 239 249 246 250 254 253 260 269 268 263 258 252 181 176 128 165 183 183 172 177 179 184 187 189 193 200 210 220 218 235 248 263 2 2 2 355 352 337 328 323 319 321 322 320 319 320 315 315 313 308 307 307 307 309 311 314 314 315 312 311 308 306 306 303 301 298 295 293
188 254 76 126 240 263 266 215 244 263 270 264 269 267 247 239 247 240 232 238 230 239 245 254 261 258 262 273 240 236 179 174 186 182 178 186 184 175 181 186 185 187 191 201 210 204 218 234 246 17 21 10 1 360 351 338 328 322 321 324 319 316 317 317 315 312 309 307 308 310 312 313 314 315 313 313 309 310 309 305 302 299 297 296 298 293
195 156 183 182 219 250 292 95 91 100 302 281 258 252 238 230 230 242 245 241 230 229 244 246 242 244 256 263 242 220 185 199 192 182 185 181 181 181 184 183 181 182 188 195 193 200 206 212 112 62 37 29 8 353 345 335 324 324 324 319 314 314 316 317 315 312 309 311 311 312 315 316 317 316 315 313 310 308 308 305 305 301 298 296 291 290
169 193 221 157 205 240 82 106 113 108 279 253 58 157 176 214 218 227 243 239 234 199 223 228 244 258 271 253 243 236 190 199 194 203 181 171 180 189 183 175 176 177 185 188 185 183 189 174 92 71 63 40 9 353 336 329 318 315 316 311 316 320 319 320 316 314 311 312 315 318 318 317 318 314 313 311 310 308 304 306 301 303 300 292 293 286
186 199 215 151 203 233 116 93 343 254 250 319 7 53 179 206 201 213 236 244 241 223 231 246 256 255 250 250 243 221 193 209 203 168 171 188 173 171 171 169 169 176 183 185 179 178 163 132 91 75 41 29 10 352 336 327 330 322 322 325 320 318 316 317 315 315 316 317 320 321 321 319 317 313 312 311 311 310 306 305 305 299 294 294 290 291
191 183 177 204 156 44 119 193 175 242 274 311 263 157 187 129 205 220 269 262 248 232 218 228 244 247 249 252 248 175 183 144 89 158 181 176 162 154 154 169 174 173 179 177 163 158 148 107 82 56 39 26 10 345 342 335 336 329 321 317 310 315 319 317 316 315 320 321 322 321 319 320 318 315 313 310 310 308 305 304 307 302 298 291 288 283
185 170 169 219 152 222 197 210 234 322 321 290 282 203 149 200 175 183 250 274 267 187 212 222 239 247 248 249 140 103 104 103 110 205 220 159 161 159 159 166 167 173 154 142 137 135 114 98 80 62 46 23 3 342 351 341 336 324 315 316 320 323 323 324 323 325 325 322 322 321 321 320 315 314 313 309 307 308 309 304 303 289 286 285 285 283
182 191 194 201 227 210 231 248 265 266 256 268 209 247 172 199 164 159 199 279 251 176 200 208 229 241 237 119 128 130 128 95 196 229 199 191 155 145 122 131 125 127 129 132 122 117 98 82 70 62 61 24 2 4 353 341 328 321 318 323 329 333 332 329 325 325 323 319 319 316 318 317 314 311 310 306 309 309 305 293 283 283 280 283 285 287
219 227 178 201 214 135 215 223 234 237 245 241 127 186 155 129 126 114 77 275 264 177 204 196 219 229 180 149 147 144 125 191 230 213 169 167 163 150 139 135 133 133 133 132 141 114 89 78 70 82 56 33 15 1 349 335 329 328 330 334 335 333 327 328 326 326 323 321 320 317 316 314 313 310 310 310 310 311 309 306 306 301 287 288 288 284
188 181 158 195 222 218 214 221 236 210 252 232 155 158 165 132 113 88 340 267 248 188 179 184 206 193 167 157 152 164 164 202 231 213 160 161 156 150 148 149 145 140 125 120 99 97 93 90 76 58 37 29 9 353 340 339 340 339 335 332 329 326 326 327 326 321 320 317 315 313 312 312 311 309 310 310 311 315 315 316 317 317 316 310 303 295
178 173 193 207 215 223 217 245 287 278 255 167 161 157 156 139 98 86 231 251 157 174 182 168 200 172 157 157 165 170 212 201 138 125 144 140 133 130 125 131 133 140 138 118 97 89 83 70 66 54 32 19 359 352 341 347 346 338 333 327 325 326 326 325 322 320 319 317 313 312 310 311 309 309 310 310 312 317 318 320 319 316 315 313 306 301
256 141 320 260 230 224 210 226 238 269 265 138 167 155 154 112 152 233 246 122 156 173 183 180 173 170 162 173 184 198 136 113 131 132 141 155 153 142 137 130 122 111 103 99 97 92 81 76 62 49 31 21 356 357 346 356 344 332 333 329 323 324 325 325 324 320 318 315 312 311 311 311 311 308 309 313 317 321 321 321 319 317 317 317 310 307
179 160 196 204 190 45 136 229 291 259 257 142 140 128 191 163 232 206 91 82 146 169 166 184 168 178 168 181 180 133 129 130 140 150 150 148 145 148 148 154 149 139 123 107 82 75 90 85 70 51 28 1 359 359 351 359 342 334 331 324 321 325 325 325 323 320 316 314 312 313 312 312 314 316 317 320 322 322 323 322 323 321 318 320 316 314
160 155 206 215 169 178 185 203 212 224 115 150 145 181 190 215 196 131 140 158 225 161 171 157 188 173 178 163 150 149 145 138 134 140 141 141 140 137 140 135 117 104 101 97 107 107 95 92 84 61 28 8 4 354 2 358 344 330 327 320 325 325 324 323 323 319 315 313 313 313 315 316 317 318 321 323 324 325 325 325 324 322 323 327 326 331
185 202 185 194 177 167 195 217 222 94 167 178 185 225 212 198 123 178 141 163 158 212 177 164 179 178 171 157 150 147 151 162 158 160 156 162 152 153 151 150 132 122 121 117 107 100 90 102 94 63 30 12 5 352 7 359 344 323 320 320 329 325 327 326 324 322 316 317 316 317 318 319 321 323 326 327 328 330 332 327 328 327 331 334 336 335
203 212 48 68 219 229 270 267 93 213 182 193 215 198 175 175 213 159 153 150 191 168 174 170 179 166 165 153 142 166 162 168 152 160 145 146 146 141 125 107 98 106 113 112 113 118 124 109 94 66 26 359 5 352 2 355 337 323 317 325 326 326 328 326 325 322 319 317 317 319 322 324 326 327 328 329 331 332 333 328 328 329 332 338 338 331
218 168 168 226 164 141 247 239 222 212 170 203 209 218 275 192 183 180 167 166 170 162 174 176 158 166 161 163 162 167 169 158 159 156 150 144 146 142 139 126 127 132 134 133 136 131 117 107 87 68 35 352 346 347 352 341 331 322 321 324 325 327 327 324 321 317 317 320 319 322 329 333 334 333 332 335 336 336 336 334 331 333 335 339 335 320
261 175 180 225 221 188 242 228 321 194 190 198 198 202 214 197 194 209 180 168 164 171 173 171 152 152 154 166 172 161 163 161 152 154 156 156 149 148 144 140 134 129 129 129 126 124 118 106 108 90 78 318 325 346 341 334 327 322 319 320 327 325 325 323 323 322 318 318 323 325 334 338 336 335 333 336 338 342 339 333 332 336 340 342 337 325
148 128 214 191 211 234 253 249 146 58 251 224 218 218 204 187 182 183 180 160 153 154 156 150 165 160 167 176 166 158 151 172 163 157 153 147 145 147 148 143 142 137 138 134 128 124 121 126 128 129 157 275 324 340 329 326 318 316 325 328 327 328 328 324 323 318 316 320 327 330 337 340 340 338 337 337 339 340 335 329 336 341 343 343 338 342
130 206 185 106 214 237 223 230 159 194 236 222 209 211 201 189 176 172 159 157 165 161 160 156 162 168 173 166 162 159 161 161 158 149 152 157 156 147 139 135 136 135 132 126 119 120 120 131 135 159 162 248 352 341 335 321 316 317 323 327 330 334 330 326 322 320 325 328 331 334 339 342 340 341 339 340 339 338 330 330 353 358 354 349 350 352
196 206 184 200 212 239 228 229 196 207 230 229 199 197 193 183 174 171 179 177 180 172 166 158 149 145 152 172 173 160 157 156 159 148 139 146 148 148 145 141 142 143 142 135 128 132 137 141 143 148 185 173 30 357 324 308 307 318 330 338 338 337 326 322 321 320 325 332 337 342 342 338 339 342 341 343 342 341 336 328 326 356 4 0 358 357